Location: Sevilla
(37.3933°N, 5.9839°W)
Time: 04:51:10
(UTC+02:00)

Transit 2A Rocket - Pass Details

Date: 30 June 2024
Orbit: 582 x 910 km, 66.7° (Epoch: 15 July)

Event Time Altitude Azimuth Distance (km) Brightness Sun altitude
Rises 18:51:21 0° 157° (SSE) 3,045 7.9 32.5°
Reaches altitude 10° 18:54:43 10° 132° (SE) 2,208 7.1 31.8°
Maximum altitude 18:57:13 14° 102° (ESE) 2,015 6.8 31.3°
Drops below altitude 10° 18:59:48 10° 72° (ENE) 2,326 7.1 30.8°
Sets 19:03:31 0° 48° (NE) 3,339 8.0 30.1°
